Weather History for Burlington, VT

Change the Weather History Date:

Tuesday, February 11, 2014

  Actual Average Record
Temperature  
Mean Temperature 7 °F 21 °F  
Max Temperature 16 °F 30 °F 58 °F (1981)
Min Temperature -2 °F 12 °F -27 °F (1979)
Degree Days  
Heating Degree Days 58 44  
Month to date heating degree days 508 498  
Since 1 July heating degree days 4724 4692  
Cooling Degree Days 0 0  
Month to date cooling degree days 0 0  
Year to date cooling degree days 0 0  
Moisture  
Dew Point 2 °F    
Average Humidity 65    
Maximum Humidity 80    
Minimum Humidity 50    
Precipitation  
Precipitation 0.01 in 0.06 in 1.06 in (1955)
Month to date precipitation 0.63 0.69  
Year to date precipitation 3.08 2.75  
Snow  
Snow 0.10 in 0.60 in 8.60 in (1955)
Month to date snowfall 12.3 6.7  
Since 1 July snowfall 46.5 51.1  
Snow Depth 7.00 in    
Sea Level Pressure  
Sea Level Pressure 30.33 in    
Wind  
Wind Speed 4 mph (North)    
Max Wind Speed 14 mph    
Max Gust Speed 18 mph    
Visibility 8 miles    
Events Snow    
T = Trace of Precipitation, MM = Missing Value Source: NWS Daily Summary

Daily Weather History Graph

Daily Weather History Graph

Search for Another Location

Airport:

Trip Planner

Search our weather history database for the weather conditions in past years. The results will help you decide how hot, cold, wet, or windy it might be!

Date:

Astronomy

Feb. 11, 2014 Rise Set
Actual Time 6:58 AM EST 5:15 PM EST
Civil Twilight 6:28 AM EST 5:46 PM EST
Nautical Twilight 5:53 AM EST 6:20 PM EST
Astronomical Twilight 5:20 AM EST 6:54 PM EST
Moon 2:30 PM EST (2/11) 4:36 AM EST (2/11)
Length of Visible Light 11h 17m
Length of Day
10h 17m
Waxing Gibbous, 90% of the Moon is Illuminated
Feb 11
Waxing Gibbous
Feb 14
Full
Feb 22
Last Quarter
Mar 1
New
Mar 8
First Quarter

Hourly Weather History & Observations

Time (EST) Temp. Windchill Dew Point Humidity Pressure Visibility Wind Dir Wind Speed Gust Speed Precip Events Conditions
12:04 AM 12.9 °F - 9.0 °F 84% 30.21 in 5.0 mi Calm Calm - 0.00 in Snow Light Snow
12:54 AM 10.9 °F - 8.1 °F 88% 30.23 in 5.0 mi Calm Calm - 0.00 in   Overcast
1:03 AM 12.0 °F - 8.1 °F 84% 30.21 in 2.5 mi Calm Calm - 0.00 in Snow Light Snow
1:13 AM 12.0 °F - 8.1 °F 84% 30.21 in 1.5 mi Calm Calm - 0.01 in Snow Light Snow
1:50 AM 12.2 °F - 8.6 °F 85% 30.21 in 2.5 mi Calm Calm - 0.01 in Snow Light Snow
1:54 AM 12.9 °F - 9.0 °F 84% 30.24 in 4.0 mi Calm Calm - 0.01 in Snow Light Snow
2:54 AM 12.0 °F - 8.1 °F 84% 30.24 in 8.0 mi Calm Calm - 0.00 in   Overcast
3:43 AM 10.9 °F - 6.1 °F 81% 30.22 in 2.5 mi Calm Calm - 0.00 in Snow Light Snow
3:51 AM 10.4 °F - 6.8 °F 85% 30.22 in 3.0 mi Calm Calm - 0.00 in Snow Light Snow
3:54 AM 10.9 °F - 6.1 °F 81% 30.25 in 3.0 mi Calm Calm - 0.00 in Snow Light Snow
4:31 AM 10.0 °F 3.6 °F 5.0 °F 80% 30.24 in 4.0 mi North 3.5 mph - 0.00 in Snow Light Snow
4:44 AM 9.0 °F - 5.0 °F 84% 30.24 in 2.5 mi Calm Calm - 0.00 in Snow Light Snow
4:52 AM 8.6 °F - 5.0 °F 85% 30.24 in 4.0 mi Calm Calm - 0.00 in   Overcast
4:54 AM 9.0 °F - 5.0 °F 84% 30.27 in 4.0 mi Calm Calm - 0.00 in   Overcast
5:07 AM 10.0 °F - 5.0 °F 80% 30.25 in 10.0 mi Calm Calm - N/A   Overcast
5:32 AM 9.0 °F 2.4 °F 3.9 °F 80% 30.25 in 10.0 mi North 3.5 mph - N/A   Mostly Cloudy
5:44 AM 8.1 °F -0.5 °F 3.9 °F 83% 30.26 in 10.0 mi North 4.6 mph - N/A   Mostly Cloudy
5:54 AM 8.1 °F -0.5 °F 3.0 °F 80% 30.28 in 10.0 mi North 4.6 mph - N/A   Overcast
6:04 AM 9.0 °F 2.4 °F 3.9 °F 80% 30.26 in 10.0 mi North 3.5 mph - N/A   Overcast
6:54 AM 8.1 °F - 1.9 °F 76% 30.30 in 10.0 mi Calm Calm - N/A   Overcast
7:54 AM 7.0 °F 0.1 °F 1.9 °F 80% 30.32 in 10.0 mi NNE 3.5 mph - N/A   Scattered Clouds
8:54 AM 9.0 °F - 1.9 °F 73% 30.34 in 10.0 mi Calm Calm - N/A   Scattered Clouds
9:54 AM 12.0 °F 0.5 °F -0.0 °F 59% 30.35 in 10.0 mi NNW 8.1 mph - N/A   Partly Cloudy
10:54 AM 12.9 °F 0.7 °F -0.0 °F 56% 30.36 in 10.0 mi NNW 9.2 mph - N/A   Partly Cloudy
11:54 AM 14.0 °F 3.9 °F 1.0 °F 56% 30.35 in 10.0 mi Variable 6.9 mph - N/A   Scattered Clouds
12:54 PM 14.0 °F 5.1 °F 1.9 °F 59% 30.35 in 10.0 mi North 5.8 mph - N/A   Scattered Clouds
1:54 PM 15.1 °F 1.8 °F -0.0 °F 51% 30.35 in 10.0 mi North 11.5 mph - N/A   Partly Cloudy
2:54 PM 15.1 °F 3.3 °F -0.9 °F 49% 30.36 in 10.0 mi North 9.2 mph - N/A   Mostly Cloudy
3:54 PM 12.9 °F 2.6 °F -2.9 °F 49% 30.38 in 10.0 mi NNE 6.9 mph - N/A   Mostly Cloudy
4:54 PM 10.9 °F -0.8 °F -5.1 °F 49% 30.40 in 10.0 mi North 8.1 mph - N/A   Partly Cloudy
5:54 PM 8.1 °F -4.3 °F -5.1 °F 55% 30.44 in 10.0 mi NNE 8.1 mph - N/A   Partly Cloudy
6:54 PM 9.0 °F -3.2 °F -5.1 °F 53% 30.46 in 10.0 mi NNE 8.1 mph - N/A   Mostly Cloudy
7:54 PM 10.0 °F -0.9 °F -5.1 °F 51% 30.48 in 10.0 mi North 6.9 mph - N/A   Overcast
8:54 PM 8.1 °F -0.5 °F -6.0 °F 53% 30.51 in 10.0 mi North 4.6 mph - N/A   Scattered Clouds
9:54 PM 6.1 °F - -6.0 °F 58% 30.52 in 10.0 mi Calm Calm - N/A   Scattered Clouds
10:54 PM 1.9 °F - -7.1 °F 66% 30.53 in 10.0 mi Calm Calm - N/A   Clear
11:54 PM -2.0 °F - -7.1 °F 79% 30.54 in 10.0 mi Calm Calm - N/A   Clear